Sponsored by H&N Chevrolet-Buick

Weather

Hourly Observations for June 29, 2020

Temp ( °F °C ) Dew Point ( °F °C ) Humidity (%) Winds ( mph kmh ) Pressure ( in mb ) Visibility ( mi km ) Precip ( " mm )
12:53 am 00:53 Clear 75 23.9 69 20.6 82 82 SE 8 13 29.87 1012 10 16.0934 0 0
1:53 am 01:53 Clear 75 23.9 70 21.1 84 84 SSE 7 11 29.85 1011 10 16.0934 0 0
2:53 am 02:53 Clear 73 22.8 70 21.1 90 90 S 6 9 29.83 1010 9 14.48406 0 0
3:53 am 03:53 Clear with Mist and Fog 72 22.2 69 20.6 91 91 S 3 6 29.82 1010 6 9.65604 0 0
4:53 am 04:53 Clear 72 22.2 69 20.6 91 91 SSE 6 9 29.82 1010 7 11.26538 0 0
5:53 am 05:53 Sunny 72 22.2 68 20 87 87 SSE 8 13 29.82 1010 7 11.26538 0 0
6:53 am 06:53 Sunny 75 23.9 69 20.6 82 82 S 9 15 29.81 1010 10 16.0934 0 0
7:53 am 07:53 Sunny 78 25.6 70 21.1 76 76 S 10 17 29.82 1010 10 16.0934 0 0
8:53 am 08:53 Sunny 82 27.8 71 21.7 69 69 SSW 13 20 29.82 1010 10 16.0934 0 0
9:53 am 09:53 Sunny 86 30 71 21.7 61 61 SSW 14 22 29.8 1009 10 16.0934 0 0
10:53 am 10:53 Sunny 88 31.1 70 21.1 55 55 SSW 17 28 29.8 1009 10 16.0934 0 0
11:53 am 11:53 Sunny 90 32.2 70 21.1 52 52 SSW 17 28 29.81 1009 10 16.0934 0 0
12:53 pm 12:53 Sunny 91 32.8 71 21.7 52 52 SSW 15 24 29.8 1009 10 16.0934 0 0
1:53 pm 13:53 Sunny 93 33.9 69 20.6 46 46 S 15 24 29.79 1009 10 16.0934 0 0
2:53 pm 14:53 Partly Cloudy 93 33.9 69 20.6 46 46 S 17 28 29.79 1009 10 16.0934 0 0
3:53 pm 15:53 Sunny 93 33.9 67 19.4 42 42 SW 15 24 29.79 1009 10 16.0934 0 0
4:53 pm 16:53 Mostly Sunny 92 33.3 69 20.6 47 47 SSW 17 28 29.77 1008 10 16.0934 0 0
5:53 pm 17:53 Sunny 89 31.7 68 20 50 50 SSW 12 19 29.76 1008 10 16.0934 0 0
6:53 pm 18:53 Sunny 88 31.1 69 20.6 54 54 SSW 12 19 29.77 1008 10 16.0934 0 0
7:53 pm 19:53 Sunny 87 30.6 71 21.7 59 59 S 8 13 29.76 1008 10 16.0934 0 0
8:53 pm 20:53 Sunny 82 27.8 71 21.7 69 69 S 8 13 29.75 1007 10 16.0934 0 0
9:53 pm 21:53 Clear 78 25.6 70 21.1 76 76 S 5 7 29.77 1008 10 16.0934 0 0
10:53 pm 22:53 Clear 75 23.9 70 21.1 84 84 SSE 7 11 29.77 1008 10 16.0934 0 0
11:53 pm 23:53 Clear 76 24.4 69 20.6 79 79 SSE 7 11 29.73 1007 10 16.0934 0 0

Powered by AerisWeather